Weather History for Monterey, CA

Change the Weather History Date:

Sunday, May 10, 2009

  Actual Average Record
Temperature  
Mean Temperature 57 °F 56 °F  
Max Temperature 65 °F 63 °F 72 °F (2001)
Min Temperature 49 °F 50 °F 43 °F (2011)
Degree Days  
Heating Degree Days 8    
Month to date heating degree days 49  
Since 1 July heating degree days 2576  
Cooling Degree Days 0    
Month to date cooling degree days 0  
Year to date cooling degree days 29  
Growing Degree Days 5 (Base 50)    
Moisture  
Dew Point 46 °F    
Average Humidity 69    
Maximum Humidity 86    
Minimum Humidity 51    
Precipitation  
Precipitation 0.00 in - 0.00 in (2014)
Month to date precipitation 0.25  
Year to date precipitation 9.68  
Since 1 July precipitation 12.88  
Sea Level Pressure  
Sea Level Pressure 30.03 in    
Wind  
Wind Speed 7 mph (WSW)    
Max Wind Speed 15 mph    
Max Gust Speed 20 mph    
Visibility 8 miles    
Events      
T = Trace of Precipitation, MM = Missing Value Source: NWS Daily Summary

Daily Weather History Graph

Daily Weather History Graph

Search for Another Location

Airport:

Trip Planner

Search our weather history database for the weather conditions in past years. The results will help you decide how hot, cold, wet, or windy it might be!

Date:

Astronomy

May. 10, 2009 Rise Set
Actual Time 6:04 AM PDT 8:03 PM PDT
Civil Twilight 5:35 AM PDT 8:32 PM PDT
Nautical Twilight 5:01 AM PDT 9:06 PM PDT
Astronomical Twilight 4:24 AM PDT 9:44 PM PDT
Moon 10:05 PM PDT (5/10) 6:43 AM PDT (5/10)
Length of Visible Light 14h 56m
Length of Day
13h 59m
Full, 97% of the Moon is Illuminated
May 10
Full
May 17
Last Quarter
May 24
New
May 30
First Quarter
Jun 7
Full

Hourly Weather History & Observations

Time (PDT) Temp. Dew Point Humidity Pressure Visibility Wind Dir Wind Speed Gust Speed Precip Events Conditions
12:54 AM 50.0 °F 46.0 °F 86% 30.04 in 8.0 mi South 5.8 mph - N/A   Scattered Clouds
1:03 AM 51.8 °F 46.4 °F 82% 30.00 in 8.0 mi South 4.6 mph - N/A   Mostly Cloudy
1:54 AM 52.0 °F 46.9 °F 83% 30.04 in 7.0 mi WSW 6.9 mph - N/A   Overcast
2:54 AM 51.1 °F 46.9 °F 86% 30.02 in 8.0 mi SSE 4.6 mph - N/A   Overcast
3:54 AM 50.0 °F 46.0 °F 86% 30.02 in 8.0 mi South 5.8 mph - N/A   Mostly Cloudy
4:35 AM 51.8 °F 48.2 °F 88% 29.98 in 5.0 mi SSW 3.5 mph - N/A   Overcast
4:54 AM 51.1 °F 46.9 °F 86% 30.02 in 6.0 mi WSW 5.8 mph - N/A   Overcast
5:51 AM 51.8 °F 46.4 °F 82% 29.98 in 7.0 mi South 4.6 mph - N/A   Overcast
6:24 AM 50.0 °F 46.4 °F 87% 29.98 in 8.0 mi South 3.5 mph - N/A   Scattered Clouds
6:54 AM 48.9 °F 44.1 °F 83% 30.01 in 10.0 mi Calm Calm - N/A   Scattered Clouds
7:54 AM 52.0 °F 46.0 °F 80% 30.03 in 8.0 mi Calm Calm - N/A   Scattered Clouds
8:54 AM 55.0 °F 48.0 °F 77% 30.03 in 7.0 mi West 4.6 mph - N/A   Scattered Clouds
9:54 AM 55.9 °F 48.9 °F 77% 30.03 in 10.0 mi WNW 5.8 mph - N/A   Partly Cloudy
10:54 AM 55.9 °F 48.9 °F 77% 30.05 in 7.0 mi NW 8.1 mph - N/A   Scattered Clouds
11:07 AM 53.6 °F 48.2 °F 82% 30.02 in 5.0 mi WNW 8.1 mph - N/A   Haze
11:29 AM 55.4 °F 48.2 °F 77% 30.02 in 7.0 mi WNW 10.4 mph - N/A   Scattered Clouds
11:54 AM 57.0 °F 46.9 °F 69% 30.06 in 7.0 mi WNW 11.5 mph - N/A   Scattered Clouds
12:54 PM 57.9 °F 48.0 °F 70% 30.05 in 8.0 mi WNW 10.4 mph - N/A   Clear
1:54 PM 59.0 °F 48.0 °F 67% 30.04 in 9.0 mi WNW 9.2 mph - N/A   Clear
2:54 PM 62.1 °F 46.9 °F 58% 30.04 in 10.0 mi WNW 10.4 mph - N/A   Clear
3:54 PM 60.1 °F 46.0 °F 60% 30.04 in 10.0 mi WNW 11.5 mph 19.6 mph N/A   Clear
4:54 PM 62.1 °F 45.0 °F 53% 30.01 in 10.0 mi WNW 5.8 mph - N/A   Clear
5:54 PM 61.0 °F 45.0 °F 56% 30.02 in 10.0 mi WNW 10.4 mph - N/A   Clear
6:54 PM 57.9 °F 45.0 °F 62% 30.01 in 10.0 mi WSW 10.4 mph - N/A   Clear
7:54 PM 57.0 °F 44.1 °F 62% 30.02 in 10.0 mi SSW 9.2 mph - N/A   Clear
8:54 PM 55.9 °F 41.0 °F 57% 30.03 in 10.0 mi SW 9.2 mph - N/A   Clear
9:54 PM 55.9 °F 39.9 °F 55% 30.05 in 10.0 mi SSW 8.1 mph - N/A   Clear
10:54 PM 55.9 °F 39.0 °F 53% 30.05 in 10.0 mi South 8.1 mph - N/A   Clear
11:54 PM 55.0 °F 37.9 °F 53% 30.06 in 10.0 mi SSW 5.8 mph - N/A   Clear